Location: Mahannah Oil Field
(37.4664°N, 96.6003°W)
Time: 04:14:23
(UTC+00:00)

deb Explorer IX - Pass Details

Date: 22 June 2021
Orbit: 544 x 1093 km, 38.8° (Epoch: 02 August)

Event Time Altitude Azimuth Distance (km) Brightness Sun altitude
Exits shadow 09:31:47 10° 169° (SSE) 2,024 ? -15.4°
Reaches altitude 10° 09:31:51 10° 168° (SSE) 2,012 ? -15.4°
Maximum altitude 09:33:35 12° 145° (SE) 1,835 ? -15.2°
Drops below altitude 10° 09:35:17 10° 123° (ESE) 1,923 ? -14.9°
Sets 09:38:49 0° 91° (E) 2,751 ? -14.4°
